Change the Weather History Date:

Friday, March 21, 2014

  Actual Average Record
Temperature  
Mean Temperature 46 °F 42 °F  
Max Temperature 61 °F 55 °F 88 °F (1907)
Min Temperature 30 °F 30 °F 5 °F (1974)
Degree Days  
Heating Degree Days 19 23  
Month to date heating degree days 616 563  
Since 1 July heating degree days 5733 5266  
Cooling Degree Days 0 0  
Month to date cooling degree days 0 0  
Year to date cooling degree days 0 0  
Moisture  
Dew Point 25 °F    
Average Humidity 44    
Maximum Humidity 63    
Minimum Humidity 25    
Precipitation  
Precipitation 0.00 in 0.07 in 0.42 in (1949)
Month to date precipitation 0.06 1.17  
Year to date precipitation 0.92 2.58  
Snow  
Snow 0.00 in 0.20 in - ()
Month to date snowfall 0.7 3.6  
Since 1 July snowfall 17.7 23.3  
Snow Depth 0.00 in    
Sea Level Pressure  
Sea Level Pressure 29.97 in    
Wind  
Wind Speed 18 mph (NNW)    
Max Wind Speed 35 mph    
Max Gust Speed 43 mph    
Visibility 10 miles    
Events      
T = Trace of Precipitation, MM = Missing Value Source: NWS Daily Summary

Daily Weather History Graph

Daily Weather History Graph

Search for Another Location

Airport or City:

Trip Planner

Search our weather history database for the weather conditions in past years. The results will help you decide how hot, cold, wet, or windy it might be!

Date:

Astronomy

Mar. 21, 2014 Rise Set
Actual Time 7:28 AM CDT 7:40 PM CDT
Civil Twilight 7:01 AM CDT 8:07 PM CDT
Nautical Twilight 6:29 AM CDT 8:39 PM CDT
Astronomical Twilight 5:56 AM CDT 9:12 PM CDT
Moon 12:02 AM CDT (3/21) 10:19 AM CDT (3/21)
Length of Visible Light 13h 06m
Length of Day
12h 11m
Waning Gibbous, 75% of the Moon is Illuminated
Mar 21
Waning Gibbous
Mar 23
Last Quarter
Mar 30
New
Apr 7
First Quarter
Apr 15
Full

Hourly Weather History & Observations

Time (CDT) Temp. Windchill Dew Point Humidity Pressure Visibility Wind Dir Wind Speed Gust Speed Precip Events Conditions
12:54 AM 34.0 °F - 19.9 °F 56% 29.82 in 10.0 mi Calm Calm - N/A   Clear
1:54 AM 37.0 °F - 19.9 °F 50% 29.81 in 10.0 mi Calm Calm - 0.00 in   Clear
2:54 AM 37.0 °F 33.3 °F 21.9 °F 54% 29.79 in 10.0 mi SSW 4.6 mph - N/A   Clear
3:54 AM 41.0 °F 39.0 °F 23.0 °F 49% 29.77 in 10.0 mi South 3.5 mph - N/A   Clear
4:54 AM 39.9 °F - 23.0 °F 51% 29.75 in 10.0 mi Calm Calm - N/A   Clear
5:54 AM 35.1 °F 30.1 °F 21.0 °F 57% 29.82 in 10.0 mi North 5.8 mph - N/A   Clear
6:54 AM 42.1 °F 35.2 °F 27.0 °F 55% 29.83 in 10.0 mi North 12.7 mph - N/A   Clear
7:54 AM 41.0 °F 35.2 °F 28.9 °F 62% 29.86 in 10.0 mi NNW 9.2 mph - N/A   Clear
8:54 AM 45.0 °F 38.2 °F 30.9 °F 58% 29.89 in 10.0 mi North 15.0 mph - N/A   Clear
9:54 AM 50.0 °F - 30.9 °F 48% 29.91 in 10.0 mi NNW 21.9 mph 27.6 mph N/A   Clear
10:54 AM 52.0 °F - 28.0 °F 40% 29.92 in 10.0 mi NNW 23.0 mph - N/A   Clear
11:54 AM 57.0 °F - 26.1 °F 30% 29.92 in 10.0 mi North 23.0 mph 34.5 mph N/A   Clear
12:54 PM 57.0 °F - 25.0 °F 29% 29.95 in 10.0 mi NNW 24.2 mph - N/A   Clear
1:54 PM 59.0 °F - 24.1 °F 26% 29.96 in 10.0 mi NNW 23.0 mph 32.2 mph N/A   Clear
2:54 PM 60.1 °F - 25.0 °F 26% 29.96 in 10.0 mi NNW 20.7 mph 34.5 mph N/A   Clear
3:54 PM 60.1 °F - 25.0 °F 26% 29.97 in 10.0 mi NNW 28.8 mph 33.4 mph N/A   Clear
4:54 PM 57.9 °F - 25.0 °F 28% 29.99 in 10.0 mi NNW 26.5 mph 41.4 mph N/A   Clear
5:54 PM 54.0 °F - 27.0 °F 35% 30.04 in 10.0 mi North 29.9 mph 38.0 mph N/A   Clear
6:54 PM 48.9 °F - 30.0 °F 48% 30.09 in 10.0 mi North 31.1 mph 38.0 mph N/A   Clear
7:54 PM 44.1 °F 34.4 °F 28.9 °F 55% 30.14 in 10.0 mi North 27.6 mph 34.5 mph N/A   Clear
8:54 PM 39.0 °F 28.5 °F 26.1 °F 60% 30.19 in 10.0 mi North 23.0 mph 35.7 mph N/A   Scattered Clouds
9:02 PM 39.9 °F 30.0 °F 26.1 °F 58% 30.18 in 10.0 mi North 21.9 mph 31.1 mph N/A   Mostly Cloudy
9:54 PM 39.0 °F 29.3 °F 25.0 °F 57% 30.22 in 10.0 mi North 19.6 mph 33.4 mph N/A   Mostly Cloudy
10:09 PM 37.0 °F 27.4 °F 24.1 °F 59% 30.21 in 10.0 mi North 17.3 mph - N/A   Scattered Clouds
10:54 PM 35.1 °F 24.8 °F 21.9 °F 59% 30.26 in 10.0 mi North 17.3 mph - N/A   Clear
11:54 PM 32.0 °F 21.6 °F 21.0 °F 64% 30.29 in 10.0 mi North 15.0 mph - N/A   Clear